Location: Musselshell
(46.5176°N, 108.0911°W)
Time: 12:16:40
(UTC+00:00)

EO-88 - Pass Details

Date: 01 July 2022
Orbit: 453 x 461 km, 97.3° (Epoch: 13 August)

Event Time Altitude Azimuth Distance (km) Brightness Sun altitude
Exits shadow 04:43:25 16° 176° (S) 1,297 ? -12.3°
Maximum altitude 04:46:06 69° 259° (WSW) 506 ? -12.5°
Drops below altitude 10° 04:49:36 10° 343° (NNW) 1,636 ? -12.9°
Sets 04:51:40 0° 346° (NNW) 2,516 ? -13.1°
